Location: Nirvana
(45.0297°N, 77.2628°W)
Time: 12:51:01
(UTC-05:00)

Envisat - Pass Details

Date: 21 October 2019
Orbit: 764 x 766 km, 98.1° (Epoch: 20 November)

Event Time Altitude Azimuth Distance (km) Brightness Sun altitude
Rises 06:37:29 0° 33° (NNE) 3,241 6.7 -10.4°
Reaches altitude 10° 06:41:20 10° 63° (ENE) 2,307 6.4 -9.7°
Maximum altitude 06:43:25 12° 87° (E) 2,137 6.8 -9.3°
Drops below altitude 10° 06:45:30 10° 112° (ESE) 2,299 6.9 -9.0°
Sets 06:49:17 0° 141° (SE) 3,218 7.0 -8.3°
